Hourly Weather Roundup
Issued by NWS Central Illinois

Home | Current Version | Previous Version | Text Only | Print | Product List | Glossary On
Versions: 1 2 3 4 5 6 7 8 9 10 11 12 13 14 15 16 17 18 19 20 21 22 23 24 25 26 27 28 29 30 31 32 33 34 35 36 37 38 39 40 41 42 43 44 45 46 47 48 49 50
000
NZUS43 KILX 030610
HWRILX

AREA WEATHER ROUNDUP
NATIONAL WEATHER SERVICE, LINCOLN IL
100 AM CDT MON AUG 03 2015


CITY           SKY/WX    TMP DP  RH WIND       PRES   REMARKS
BLOOMINGTON    PTCLDY    76  71  84 SW10      29.80R
6HR MIN TEMP:  76; 6HR MAX TEMP:  86;

CHAMPAIGN      PTCLDY    75  70  84 SW8       29.80S
6HR MIN TEMP:  73; 6HR MAX TEMP:  85;

DANVILLE       MOCLDY    75  72  89 SW9       29.77S
6HR MIN TEMP:  75; 6HR MAX TEMP:  83;

DECATUR        PTCLDY    77  68  73 SW7       29.80S
6HR MIN TEMP:  76; 6HR MAX TEMP:  87;

EFFINGHAM      PTCLDY    76  70  80 S6        29.84F
FLORA          CLEAR     75  71  87 SW6       29.85F
6HR MIN TEMP:  75; 6HR MAX TEMP:  86;

GALESBURG      CLEAR     73  71  91 NW7       29.80R
JACKSONVILLE   CLOUDY    77  71  83 SW5       29.80R
6HR MIN TEMP:  77; 6HR MAX TEMP:  88;

LACON          CLEAR     78  70  76 NW9       29.75R HX  81
6HR MIN TEMP:  78; 6HR MAX TEMP:  86;

LAWRENCEVILLE  CLEAR     74  71  91 S8        29.85F
6HR MIN TEMP:  74; 6HR MAX TEMP:  88;

LITCHFIELD     MOCLDY    77  66  68 SW7       29.81F
$$


CITY           SKY/WX    TMP DP  RH WIND       PRES   REMARKS
LINCOLN        PTCLDY    77  70  77 SW3       29.77S
6HR MIN TEMP:  77; 6HR MAX TEMP:  88;

MACOMB         PTCLDY    72  68  86 W7        29.81S
MATTOON        PTCLDY    76  71  85 S8        29.81F
6HR MIN TEMP:  76; 6HR MAX TEMP:  85;

MT CARMEL AP   CLEAR     77  70  78 S9        29.85F
OLNEY-NOBLE AP CLEAR     73  72  94 S3        29.85S
PARIS          CLEAR     75  72  89 SW7       29.82S
6HR MIN TEMP:  75; 6HR MAX TEMP:  85;

PEORIA         CLEAR     80  71  74 W8        29.77R HX  84
6HR MIN TEMP:  80; 6HR MAX TEMP:  88;

PONTIAC        CLOUDY    80  74  82 SW9       29.77R HX  85
RANTOUL        PTCLDY    77  71  82 SW10      29.78S
6HR MIN TEMP:  77; 6HR MAX TEMP:  86;

ROBINSON       CLEAR     75  71  87 S7        29.84F
6HR MIN TEMP:  74; 6HR MAX TEMP:  84;

SPRINGFIELD    MOCLDY    78  70  76 SW6       29.79S HX  80
6HR MIN TEMP:  78; 6HR MAX TEMP:  87;

TAYLORVILLE    MOCLDY    77  68  73 SW9       29.80S
$$

...REGIONAL REPORTS...


CITY           SKY/WX    TMP DP  RH WIND       PRES   REMARKS
CHICAGO O`HARE CLOUDY    67  66  97 W3        29.75R
KANKAKEE       MOCLDY    78  71  78 SW13      29.75R HX  80
MOLINE         PTCLDY    75  61  61 W14       29.78R
MOUNT STERLING NOT AVBL
MOUNT VERNON   PTCLDY    77  68  73 SW7       29.86F
PITTSFIELD     CLOUDY    75  67  75 CALM      29.80F
QUINCY         CLOUDY    76  56  49 W6        29.80R
ROCKFORD       MOCLDY    74  64  71 CALM      29.78R
$$


CITY           SKY/WX    TMP DP  RH WIND       PRES   REMARKS
BURLINGTON     CLEAR     72  69  90 W5        29.80R
CEDAR RAPIDS   CLEAR     69  67  93 NW6       29.82R
DES MOINES     PTCLDY    74  62  66 N8        29.87R
KIRKSVILLE     LGT RAIN  75  56  51 SW8       29.85R
OTTUMWA        PTCLDY    69  61  75 W12       29.83R
ST LOUIS       CLOUDY    83  66  56 W6        29.85S HX  85
$$


CITY           SKY/WX    TMP DP  RH WIND       PRES   REMARKS
TERRE HAUTE    MOCLDY    77  71  82 S10       29.83F
EVANSVILLE     CLEAR     77  67  71 SW7       29.88S
INDIANAPOLIS   PTCLDY    75  64  68 SW10      29.82F
LAFAYETTE      PTCLDY    77  71  82 SW6       29.76F
MADISON        CLEAR     71  59  65 NW6       29.75R
MILWAUKEE      PTCLDY    68  59  73 SW5       29.74R
$$





USA.gov is the U.S. government's official web portal to all federal, state and local government web resources and services.